User: anonymous   Login
Location: Monteux
(44.0348°N, 4.9972°E)
Time: 17:47:27
(UTC+00:00)
Language:

NOAA 12 - Orbit

View from above orbital plane
View from above orbital plane
View from above satellite
View from above satellite

Ground track
Ground track

The orbit data is extracted from the following two-line orbital elements,

1 21263U 91032A   21127.92035947 -.00000013  00000-0  12270-4 0  9992
2 21263  98.5055 134.3966 0014882  86.5757 273.7126 14.25939058558935
Epoch (UTC): 07 May 2021 22:05:19
Eccentricity: 0.0014882
inclination: 98.5055°
perigee height: 794 km
apogee height: 816 km
right ascension of ascending node: 134.3966°
argument of perigee: 86.5757°
revolutions per day: 14.25939058
mean anomaly at epoch: 273.7126°
orbit number at epoch: 55893

The dashed part of the orbit path shows where the satellite is in the earth's shadow,  

DLR